Location: ??
(34.9170°N, 135.5016°E)
Time: 12:05:23
(UTC+00:00)

Cosmos 407 Rocket - Pass Details

Date: 29 October 2020
Orbit: 743 x 787 km, 74.1° (Epoch: 27 November)

Event Time Altitude Azimuth Distance (km) Brightness Sun altitude
Rises 20:47:36 0° 221° (SW) 3,168 6.4 -6.7°
Reaches altitude 10° 20:50:11 10° 232° (SW) 2,250 5.6 -6.2°
Maximum altitude 20:54:40 31° 294° (WNW) 1,297 4.2 -5.3°
Drops below altitude 10° 20:59:12 10° 356° (N) 2,276 5.8 -4.4°
Sets 21:01:50 0° 7° (N) 3,210 6.6 -3.8°
